NR5ON-13 Weather Reports


time (UTC)temp
C
wind
direction
speed
KPH
gust
KPH
rain 1hr
cm
rain 24hr
cm
rain mn
cm
humidity
%
barometer
mb
20260510220822 21 99 8.0 30.6 0.00 0.00 0.00 31 1023.2
20260510220308 21 126 9.7 30.6 0.00 0.00 0.00 30 1023.2
20260510215813 21 148 12.9 25.7 0.00 0.00 0.00 29 1023.2
20260510215321 21 149 4.8 22.5 0.00 0.00 0.00 28 1023.1
20260510214810 21 84 6.4 25.7 0.00 0.00 0.00 27 1023.1
20260510214315 20 96 11.3 25.7 0.00 0.00 0.00 28 1023.1
20260510213821 21 94 9.7 24.1 0.00 0.00 0.00 26 1023.1
20260510213308 21 87 8.0 20.9 0.00 0.00 0.00 26 1023.2
20260510212817 21 115 6.4 20.9 0.00 0.00 0.00 26 1023.1
20260510212321 21 128 9.7 17.7 0.00 0.00 0.00 26 1023.2
20260510211809 21 115 6.4 14.5 0.00 0.00 0.00 27 1023.2
20260510211313 20 154 4.8 17.7 0.00 0.00 0.00 25 1023.1
20260510210819 20 190 8.0 17.7 0.00 0.00 0.00 27 1023.0
20260510210309 20 93 8.0 25.7 0.00 0.00 0.00 28 1023.0
20260510205813 18 89 12.9 25.7 0.00 0.00 0.00 30 1023.1
20260510205319 18 150 8.0 22.5 0.00 0.00 0.00 31 1023.2
20260510204823 18 75 8.0 19.3 0.00 0.00 0.00 32 1023.6
20260510204309 18 86 8.0 24.1 0.00 0.00 0.00 31 1023.8
20260510203814 18 129 9.7 24.1 0.00 0.00 0.00 34 1024.1
20260510203320 18 70 4.8 16.1 0.00 0.00 0.00 30 1024.1
20260510202825 18 74 3.2 16.1 0.00 0.00 0.00 30 1024.0
20260510202310 18 96 4.8 24.1 0.00 0.00 0.00 29 1024.1
20260510201816 18 90 14.5 24.1 0.00 0.00 0.00 31 1024.1
20260510201320 18 120 8.0 20.9 0.00 0.00 0.00 36 1024.0
20260510200809 19 107 6.4 20.9 0.00 0.00 0.00 34 1023.9
20260510200317 19 178 0.0 16.1 0.00 0.00 0.00 34 1023.5
20260510195822 19 88 4.8 19.3 0.00 0.00 0.00 33 1023.4
20260510195310 20 94 4.8 19.3 0.00 0.00 0.00 32 1023.4
20260510194817 20 98 4.8 17.7 0.00 0.00 0.00 30 1023.4
20260510194325 21 173 1.6 6.4 0.00 0.00 0.00 22 1023.2
20260510193810 21 270 3.2 12.9 0.00 0.00 0.00 20 1023.2
20260510193318 21 175 3.2 14.5 0.00 0.00 0.00 21 1023.2
20260510192825 22 197 6.4 16.1 0.00 0.00 0.00 20 1023.2
20260510192314 22 171 3.2 14.5 0.00 0.00 0.00 20 1023.2
20260510191818 21 107 3.2 14.5 0.00 0.00 0.00 21 1023.1
20260510191324 21 221 1.6 12.9 0.00 0.00 0.00 21 1023.2
20260510190808 21 179 3.2 16.1 0.00 0.00 0.00 22 1023.4
20260510190316 21 249 4.8 14.5 0.00 0.00 0.00 21 1023.5
20260510185821 22 130 3.2 12.9 0.00 0.00 0.00 21 1023.5
20260510185326 22 299 6.4 12.9 0.00 0.00 0.00 21 1023.4
20260510184812 22 247 4.8 12.9 0.00 0.00 0.00 22 1023.5
20260510184317 22 145 4.8 12.9 0.00 0.00 0.00 22 1023.5
20260510183822 21 182 1.6 12.9 0.00 0.00 0.00 23 1023.5
20260510183310 21 235 6.4 14.5 0.00 0.00 0.00 23 1023.6
20260510182816 21 159 1.6 20.9 0.00 0.00 0.00 22 1023.6
20260510182321 21 267 6.4 22.5 0.00 0.00 0.00 23 1023.6
20260510181825 21 240 6.4 22.5 0.00 0.00 0.00 25 1023.6
20260510181311 21 94 3.2 14.5 0.00 0.00 0.00 25 1023.6
20260510180819 21 144 1.6 16.1 0.00 0.00 0.00 24 1023.6
20260510180324 21 168 4.8 16.1 0.00 0.00 0.00 25 1023.7
20260510175808 21 198 8.0 14.5 0.00 0.00 0.00 26 1023.7
20260510175314 21 257 3.2 14.5 0.00 0.00 0.00 24 1023.7
20260510174822 21 183 4.8 14.5 0.00 0.00 0.00 24 1023.9
20260510174312 21 146 1.6 11.3 0.00 0.00 0.00 25 1023.8
20260510173816 21 184 4.8 14.5 0.00 0.00 0.00 26 1024.0
20260510173322 20 164 6.4 14.5 0.00 0.00 0.00 27 1024.0
20260510172827 20 113 4.8 11.3 0.00 0.00 0.00 27 1023.9
20260510172311 20 244 1.6 16.1 0.00 0.00 0.00 28 1023.9
20260510171817 20 194 3.2 16.1 0.00 0.00 0.00 28 1024.0
20260510171322 20 184 4.8 16.1 0.00 0.00 0.00 27 1024.0
20260510170827 20 188 8.0 12.9 0.00 0.00 0.00 27 1024.0
20260510170312 20 184 0.0 19.3 0.00 0.00 0.00 28 1024.0
20260510165817 20 148 6.4 19.3 0.00 0.00 0.00 28 1024.0
20260510165322 20 211 3.2 11.3 0.00 0.00 0.00 28 1023.8
20260510164811 19 185 4.8 17.7 0.00 0.00 0.00 28 1023.8
20260510164319 19 138 6.4 17.7 0.00 0.00 0.00 28 1023.8
20260510163807 19 195 4.8 17.7 0.00 0.00 0.00 30 1023.8
20260510163312 19 128 6.4 14.5 0.00 0.00 0.00 30 1023.7
20260510162820 19 177 8.0 14.5 0.00 0.00 0.00 30 1023.8
20260510162325 19 134 6.4 20.9 0.00 0.00 0.00 30 1023.7
20260510161810 19 199 9.7 22.5 0.00 0.00 0.00 30 1023.7
20260510161314 19 120 3.2 12.9 0.00 0.00 0.00 28 1023.7
20260510160820 19 192 4.8 11.3 0.00 0.00 0.00 28 1023.6
20260510160309 19 178 3.2 12.9 0.00 0.00 0.00 28 1023.6
20260510155815 18 157 4.8 9.7 0.00 0.00 0.00 28 1023.7
20260510155319 18 194 3.2 19.3 0.00 0.00 0.00 29 1023.7
20260510154825 18 156 6.4 19.3 0.00 0.00 0.00 29 1023.6
20260510154309 18 174 4.8 14.5 0.00 0.00 0.00 29 1023.6
20260510153814 18 140 4.8 14.5 0.00 0.00 0.00 29 1023.6
20260510153322 18 104 4.8 14.5 0.00 0.00 0.00 29 1023.6
20260510152826 18 132 8.0 14.5 0.00 0.00 0.00 29 1023.6
20260510152311 18 94 4.8 22.5 0.00 0.00 0.00 29 1023.4
20260510151815 18 140 8.0 22.5 0.00 0.00 0.00 29 1023.4
20260510151320 18 178 3.2 9.7 0.00 0.00 0.00 30 1023.3
20260510150812 18 138 6.4 16.1 0.00 0.00 0.00 29 1023.3
20260510150316 18 119 8.0 16.1 0.00 0.00 0.00 29 1023.2
20260510145821 18 138 6.4 20.9 0.00 0.00 0.00 29 1023.2
20260510145306 17 87 9.7 20.9 0.00 0.00 0.00 29 1023.2
20260510144813 17 161 6.4 17.7 0.00 0.00 0.00 29 1023.2
20260510144318 17 149 4.8 14.5 0.00 0.00 0.00 30 1023.2
20260510143806 17 103 3.2 14.5 0.00 0.00 0.00 30 1023.2
20260510143314 17 98 8.0 12.9 0.00 0.00 0.00 30 1023.2
20260510142819 17 138 4.8 12.9 0.00 0.00 0.00 31 1023.2
20260510142308 17 142 3.2 8.0 0.00 0.00 0.00 32 1023.1
20260510141813 16 15 0.0 1.6 0.00 0.00 0.00 32 1023.0
20260510141318 16 15 0.0 1.6 0.00 0.00 0.00 33 1023.0
20260510140822 15 15 0.0 6.4 0.00 0.00 0.00 36 1022.9
20260510140327 15 15 1.6 8.0 0.00 0.00 0.00 37 1022.8
20260510135811 15 16 3.2 8.0 0.00 0.00 0.00 36 1022.8
20260510135317 14 58 1.6 4.8 0.00 0.00 0.00 38 1022.7
20260510134822 13 58 1.6 4.8 0.00 0.00 0.00 39 1022.7
20260510134327 13 58 1.6 4.8 0.00 0.00 0.00 39 1022.7
20260510133811 13 59 1.6 4.8 0.00 0.00 0.00 39 1022.8
20260510133317 13 59 0.0 4.8 0.00 0.00 0.00 40 1022.6
20260510132825 13 59 0.0 3.2 0.00 0.00 0.00 40 1022.6
20260510132310 13 60 0.0 3.2 0.00 0.00 0.00 40 1022.6
20260510131815 13 60 0.0 3.2 0.00 0.00 0.00 40 1022.5
20260510131320 13 60 0.0 0.0 0.00 0.00 0.00 40 1022.3
20260510130826 13 60 0.0 0.0 0.00 0.00 0.00 40 1022.2
20260510130310 13 60 0.0 0.0 0.00 0.00 0.00 40 1022.2
20260510125817 13 60 0.0 0.0 0.00 0.00 0.00 39 1022.2
20260510125322 13 60 0.0 0.0 0.00 0.00 0.00 39 1021.9
20260510124807 13 60 0.0 0.0 0.00 0.00 0.00 38 1021.9
20260510124312 13 60 0.0 0.0 0.00 0.00 0.00 37 1021.8
20260510123820 13 60 0.0 0.0 0.00 0.00 0.00 36 1021.8
20260510123328 13 60 0.0 0.0 0.00 0.00 0.00 36 1021.8
20260510122812 13 60 0.0 0.0 0.00 0.00 0.00 35 1021.8
20260510122315 13 60 0.0 0.0 0.00 0.00 0.00 35 1021.8
20260510121820 14 60 0.0 0.0 0.00 0.00 0.00 34 1021.8
20260510121325 15 60 0.0 3.2 0.00 0.00 0.00 33 1021.7
20260510120809 15 60 0.0 3.2 0.00 0.00 0.00 32 1021.5
20260510120314 15 60 0.0 3.2 0.00 0.00 0.00 31 1021.5
20260510115822 15 60 0.0 4.8 0.00 0.00 0.00 31 1021.4
20260510115310 15 60 0.0 4.8 0.00 0.00 0.00 31 1021.4
20260510114818 15 46 0.0 4.8 0.00 0.00 0.00 31 1021.5
20260510114322 15 46 0.0 4.8 0.00 0.00 0.00 30 1021.5
20260510113810 15 97 1.6 9.7 0.00 0.00 0.00 30 1021.4
20260510113318 15 90 3.2 11.3 0.00 0.00 0.00 30 1021.3
20260510112823 15 82 4.8 11.3 0.00 0.00 0.00 31 1021.2
20260510112308 14 84 0.0 9.7 0.00 0.00 0.00 32 1021.2
20260510111813 14 84 1.6 9.7 0.00 0.00 0.00 32 1021.2
20260510111321 13 22 0.0 1.6 0.00 0.00 0.00 33 1021.2
20260510110825 14 22 0.0 6.4 0.00 0.00 0.00 32 1021.1
20260510110309 13 22 0.0 1.6 0.00 0.00 0.00 32 1021.0
20260510105818 13 22 0.0 1.6 0.00 0.00 0.00 32 1020.9
20260510105325 13 22 0.0 0.0 0.00 0.00 0.00 32 1020.9
20260510104810 13 22 0.0 1.6 0.00 0.00 0.00 33 1020.8
20260510104315 13 22 0.0 3.2 0.00 0.00 0.00 33 1020.7
20260510103820 13 22 0.0 3.2 0.00 0.00 0.00 34 1020.8
20260510103324 13 22 0.0 0.0 0.00 0.00 0.00 36 1021.0
20260510102807 13 22 0.0 0.0 0.00 0.00 0.00 36 1021.2
20260510102312 13 22 0.0 0.0 0.00 0.00 0.00 36 1021.0
20260510101818 13 22 0.0 0.0 0.00 0.00 0.00 37 1020.8
20260510101322 13 22 0.0 0.0 0.00 0.00 0.00 36 1020.7
20260510100812 13 22 0.0 1.6 0.00 0.00 0.00 35 1020.5
20260510100317 13 22 0.0 1.6 0.00 0.00 0.00 35 1020.5
20260510095822 13 22 0.0 0.0 0.00 0.00 0.00 35 1020.5
20260510095326 13 22 0.0 0.0 0.00 0.00 0.00 34 1020.4
20260510094811 13 22 0.0 0.0 0.00 0.00 0.00 33 1020.5
20260510094317 13 22 0.0 0.0 0.00 0.00 0.00 33 1020.4
20260510093822 13 22 0.0 0.0 0.00 0.00 0.00 33 1020.3
20260510093326 13 22 0.0 0.0 0.00 0.00 0.00 32 1020.3
20260510092811 14 22 0.0 0.0 0.00 0.00 0.00 32 1020.1
20260510092317 14 22 0.0 0.0 0.00 0.00 0.00 31 1019.8
20260510091807 14 22 0.0 0.0 0.00 0.00 0.00 30 1019.9
20260510091312 14 22 0.0 0.0 0.00 0.00 0.00 30 1019.8
20260510090817 15 22 0.0 0.0 0.00 0.00 0.00 29 1019.8
20260510090322 15 22 0.0 0.0 0.00 0.00 0.00 28 1019.6
20260510085826 15 22 0.0 0.0 0.00 0.00 0.00 28 1019.4
20260510085310 15 22 0.0 4.8 0.00 0.00 0.00 27 1019.4
20260510084816 15 22 1.6 6.4 0.00 0.00 0.00 27 1019.3
20260510084321 15 17 1.6 6.4 0.00 0.00 0.00 27 1019.3
20260510083826 15 333 0.0 4.8 0.00 0.00 0.00 28 1019.4
20260510083311 14 315 0.0 6.4 0.00 0.00 0.00 29 1019.3
20260510082816 14 315 0.0 0.0 0.00 0.00 0.00 29 1019.2
20260510082325 14 315 0.0 0.0 0.00 0.00 0.00 30 1019.2
20260510081810 15 315 0.0 0.0 0.00 0.00 0.00 30 1019.2
20260510081314 15 315 0.0 1.6 0.00 0.00 0.00 29 1019.2
20260510080819 15 315 0.0 1.6 0.00 0.00 0.00 29 1019.3
20260510080325 15 315 0.0 0.0 0.00 0.00 0.00 28 1019.3
20260510075810 15 315 0.0 3.2 0.00 0.00 0.00 27 1019.3
20260510075313 16 315 0.0 3.2 0.00 0.00 0.00 26 1019.3
20260510074818 16 315 0.0 4.8 0.00 0.00 0.00 26 1019.3
20260510074323 16 315 0.0 8.0 0.00 0.00 0.00 27 1019.4
20260510073808 15 315 0.0 9.7 0.00 0.00 0.00 26 1019.2
20260510073317 15 313 1.6 9.7 0.00 0.00 0.00 27 1019.2
20260510072822 15 11 0.0 3.2 0.00 0.00 0.00 27 1019.3
20260510072307 15 12 1.6 3.2 0.00 0.00 0.00 27 1019.2
20260510071812 16 12 0.0 3.2 0.00 0.00 0.00 26 1019.2
20260510071319 16 13 0.0 4.8 0.00 0.00 0.00 26 1019.2
20260510070807 16 11 0.0 4.8 0.00 0.00 0.00 26 1019.2
20260510070315 16 11 0.0 4.8 0.00 0.00 0.00 26 1019.2
20260510065822 16 12 1.6 8.0 0.00 0.00 0.00 25 1019.2
20260510065307 16 19 1.6 6.4 0.00 0.00 0.00 25 1019.2
20260510064812 16 5 3.2 6.4 0.00 0.00 0.00 25 1019.1
20260510064321 16 355 1.6 12.9 0.00 0.00 0.00 25 1019.0
20260510063809 16 13 3.2 12.9 0.00 0.00 0.00 25 1019.1
20260510063315 16 299 4.8 11.3 0.00 0.00 0.00 25 1019.2
20260510062820 16 335 4.8 11.3 0.00 0.00 0.00 24 1019.2
20260510062325 16 307 4.8 9.7 0.00 0.00 0.00 24 1019.1
20260510061809 17 11 6.4 12.9 0.00 0.00 0.00 24 1019.0
20260510061314 17 329 6.4 12.9 0.00 0.00 0.00 23 1019.0
20260510060819 17 329 4.8 9.7 0.00 0.00 0.00 23 1019.0
20260510060323 17 316 3.2 6.4 0.00 0.00 0.00 23 1018.9
20260510055808 17 332 0.0 4.8 0.00 0.00 0.00 23 1018.8
20260510055317 17 332 1.6 8.0 0.00 0.00 0.00 23 1018.8
20260510054822 17 332 1.6 8.0 0.00 0.00 0.00 23 1018.8
20260510054307 17 323 4.8 9.7 0.00 0.00 0.00 22 1018.9
20260510053812 17 317 3.2 11.3 0.00 0.00 0.00 22 1018.8
20260510053317 17 327 6.4 11.3 0.00 0.00 0.00 22 1018.8
20260510052822 17 339 4.8 9.7 0.00 0.00 0.00 21 1018.9
20260510052326 18 321 3.2 12.9 0.00 0.00 0.00 21 1018.8
20260510051810 18 328 6.4 12.9 0.00 0.00 0.00 20 1018.8
20260510051316 18 334 3.2 16.1 0.00 0.00 0.00 20 1018.7
20260510050821 18 323 8.0 16.1 0.00 0.00 0.00 20 1018.8
20260510050309 18 308 6.4 12.9 0.00 0.00 0.00 19 1018.8
20260510045815 18 343 4.8 9.7 0.00 0.00 0.00 19 1018.6
20260510045320 18 327 3.2 11.3 0.00 0.00 0.00 19 1018.6
20260510044825 18 324 4.8 11.3 0.00 0.00 0.00 18 1018.6
20260510044310 18 340 3.2 12.9 0.00 0.00 0.00 18 1018.7
20260510043815 18 329 4.8 9.7 0.00 0.00 0.00 18 1018.7
20260510043323 18 15 4.8 8.0 0.00 0.00 0.00 18 1018.7
20260510042808 18 25 1.6 6.4 0.00 0.00 0.00 18 1018.7
20260510042317 18 355 0.0 4.8 0.00 0.00 0.00 17 1018.7
20260510041821 18 355 1.6 4.8 0.00 0.00 0.00 17 1018.6
20260510041309 18 355 0.0 3.2 0.00 0.00 0.00 17 1018.7
20260510040814 18 355 0.0 6.4 0.00 0.00 0.00 17 1018.5
20260510040319 18 338 0.0 4.8 0.00 0.00 0.00 17 1018.4
20260510035824 18 335 0.0 4.8 0.00 0.00 0.00 17 1018.4
20260510035309 18 335 0.0 4.8 0.00 0.00 0.00 16 1018.4
20260510034814 18 335 1.6 4.8 0.00 0.00 0.00 16 1018.3
20260510034322 18 336 1.6 6.4 0.00 0.00 0.00 16 1018.4
20260510033810 19 336 1.6 8.0 0.00 0.00 0.00 15 1018.3
20260510033315 19 335 1.6 8.0 0.00 0.00 0.00 15 1018.2
20260510032823 19 319 1.6 9.7 0.00 0.00 0.00 15 1018.1
20260510032315 19 360 3.2 9.7 0.00 0.00 0.00 14 1018.1
20260510031823 19 332 3.2 9.7 0.00 0.00 0.00 14 1018.0
20260510031307 19 355 3.2 8.0 0.00 0.00 0.00 14 1017.9
20260510030813 20 225 1.6 4.8 0.00 0.00 0.00 14 1017.8
20260510030317 20 225 0.0 1.6 0.00 0.00 0.00 14 1017.6
20260510025823 20 225 0.0 3.2 0.00 0.00 0.00 14 1017.5
20260510025328 20 225 0.0 3.2 0.00 0.00 0.00 14 1017.4
20260510024813 20 225 0.0 4.8 0.00 0.00 0.00 14 1017.4
20260510024319 21 225 0.0 4.8 0.00 0.00 0.00 14 1017.2
20260510023824 21 225 0.0 4.8 0.00 0.00 0.00 13 1017.1
20260510023313 21 225 0.0 6.4 0.00 0.00 0.00 13 1017.1
20260510022818 21 225 0.0 6.4 0.00 0.00 0.00 13 1017.0
20260510022324 21 225 0.0 4.8 0.00 0.00 0.00 12 1016.9
20260510021809 22 225 0.0 6.4 0.00 0.00 0.00 12 1016.9
20260510021315 22 225 0.0 6.4 0.00 0.00 0.00 12 1016.8
20260510020821 22 225 1.6 11.3 0.00 0.00 0.00 11 1016.7
20260510020309 22 318 1.6 12.9 0.00 0.00 0.00 11 1016.7
20260510015817 22 279 3.2 12.9 0.00 0.00 0.00 11 1016.7
20260510015321 22 261 1.6 14.5 0.00 0.00 0.00 12 1016.7
20260510014806 22 271 3.2 14.5 0.00 0.00 0.00 11 1016.6
20260510014317 23 255 4.8 22.5 0.00 0.00 0.00 11 1016.6
20260510013823 23 258 4.8 22.5 0.00 0.00 0.00 10 1016.5
20260510013308 23 307 4.8 20.9 0.00 0.00 0.00 10 1016.5
20260510012815 23 284 8.0 17.7 0.00 0.00 0.00 10 1016.4
20260510012320 23 295 8.0 16.1 0.00 0.00 0.00 10 1016.3
20260510011825 23 239 8.0 20.9 0.00 0.00 0.00 10 1016.3
20260510011329 24 262 6.4 19.3 0.00 0.00 0.00 10 1016.2
20260510010814 24 265 8.0 17.7 0.00 0.00 0.00 10 1016.2
20260510010320 24 246 3.2 16.1 0.00 0.00 0.00 10 1016.2
20260510005826 24 328 6.4 17.7 0.00 0.00 0.00 10 1016.1
20260510005315 24 301 4.8 19.3 0.00 0.00 0.00 10 1016.1
20260510004820 24 262 8.0 19.3 0.00 0.00 0.00 9 1016.1
20260510004325 24 271 6.4 24.1 0.00 0.00 0.00 10 1016.1
20260510003811 25 291 11.3 24.1 0.00 0.00 0.00 10 1016.2
20260510003316 24 269 8.0 22.5 0.00 0.00 0.00 10 1016.0
20260510002822 24 250 8.0 22.5 0.00 0.00 0.00 10 1016.0
20260510002330 24 237 6.4 24.1 0.00 0.00 0.00 9 1016.0
20260510001815 25 250 8.0 24.1 0.00 0.00 0.00 9 1016.0
20260510001319 25 245 6.4 24.1 0.00 0.00 0.00 9 1016.0
20260510000824 25 281 9.7 24.1 0.00 0.00 0.00 10 1016.0
20260510000314 25 243 8.0 16.1 0.00 0.00 0.00 10 1015.9
20260509235817 24 221 4.8 12.9 0.00 0.00 0.00 10 1015.9
20260509235323 24 296 4.8 19.3 0.00 0.00 0.00 10 1016.0
20260509234828 25 261 8.0 24.1 0.00 0.00 0.00 10 1016.0
20260509234314 25 279 9.7 20.9 0.00 0.00 0.00 9 1015.9
20260509233817 25 266 8.0 20.9 0.00 0.00 0.00 9 1015.9
20260509233322 25 268 4.8 32.2 0.00 0.00 0.00 10 1015.8
20260509232828 25 245 12.9 32.2 0.00 0.00 0.00 9 1015.9
20260509232312 25 221 6.4 20.9 0.00 0.00 0.00 9 1015.9
20260509231817 26 230 8.0 24.1 0.00 0.00 0.00 9 1015.9
20260509231325 26 267 12.9 24.1 0.00 0.00 0.00 9 1016.0
20260509230813 25 223 9.7 24.1 0.00 0.00 0.00 10 1015.8
20260509230318 25 279 6.4 19.3 0.00 0.00 0.00 9 1015.8
20260509225824 25 257 6.4 20.9 0.00 0.00 0.00 10 1015.9
20260509225329 25 256 9.7 25.7 0.00 0.00 0.00 9 1015.9
20260509224813 25 234 6.4 25.7 0.00 0.00 0.00 10 1015.8
20260509224317 25 254 8.0 25.7 0.00 0.00 0.00 9 1015.8
20260509223822 25 253 11.3 25.7 0.00 0.00 0.00 9 1016.0
20260509223325 25 275 4.8 16.1 0.00 0.00 0.00 9 1015.9
20260509222830 25 248 6.4 16.1 0.00 0.00 0.00 9 1016.0
20260509222313 25 229 4.8 16.1 0.00 0.00 0.00 10 1016.0
20260509221822 25 254 6.4 16.1 0.00 0.00 0.00 9 1016.1
20260509221326 25 261 6.4 14.5 0.00 0.00 0.00 9 1016.1